contact:dominique.lefevre@mio.osupytheas.fr, maurice.libes@osupytheas.fr, didier.mallarino@osupytheas.fr
Project:EMSO http://www.emso-fr.org/EMSO-France
Depth: 2436.0 m
Title:EMSO Ligure Ouest : Data MII capteur MICROCAT
DateTime_Computer,Latitude,Longitude,Temperature,Conductivity,Pressure,DateTime_Instrument
DateTime_Computer,Latitude,Longitude,degC,S m-1,dbar,DateTime_Instrument
2023-11-22T00:00:03Z,42.805,6.029,13.3047,4.60120,2470.707,2023-11-22T02:02:31Z
2023-11-22T00:03:06Z,42.805,6.029,13.3045,4.60117,2470.707,2023-11-22T02:05:34Z
2023-11-22T00:06:10Z,42.805,6.029,13.3046,4.60121,2470.67,2023-11-22T02:08:37Z
2023-11-22T00:09:13Z,42.805,6.029,13.3047,4.60130,2470.693,2023-11-22T02:11:40Z
2023-11-22T00:12:16Z,42.805,6.029,13.3044,4.60134,2470.693,2023-11-22T02:14:44Z
2023-11-22T00:15:19Z,42.805,6.029,13.3045,4.60119,2470.693,2023-11-22T02:17:47Z
2023-11-22T00:18:22Z,42.805,6.029,13.3045,4.60124,2470.717,2023-11-22T02:20:50Z
2023-11-22T00:21:25Z,42.805,6.029,13.3046,4.60119,2470.693,2023-11-22T02:23:53Z
2023-11-22T00:24:28Z,42.805,6.029,13.3046,4.60122,2470.717,2023-11-22T02:26:56Z
2023-11-22T00:27:31Z,42.805,6.029,13.3047,4.60129,2470.717,2023-11-22T02:29:59Z
2023-11-22T00:30:34Z,42.805,6.029,13.3049,4.60125,2470.693,2023-11-22T02:33:02Z
2023-11-22T00:33:37Z,42.805,6.029,13.3043,4.60126,2470.693,2023-11-22T02:36:05Z
2023-11-22T00:36:40Z,42.805,6.029,13.3048,4.60130,2470.717,2023-11-22T02:39:08Z
2023-11-22T00:39:43Z,42.805,6.029,13.3049,4.60127,2470.693,2023-11-22T02:42:11Z
2023-11-22T00:42:47Z,42.805,6.029,13.3043,4.60121,2470.707,2023-11-22T02:45:14Z
2023-11-22T00:45:50Z,42.805,6.029,13.3042,4.60123,2470.73,2023-11-22T02:48:17Z
2023-11-22T00:48:53Z,42.805,6.029,13.3048,4.60127,2470.717,2023-11-22T02:51:20Z
2023-11-22T00:51:56Z,42.805,6.029,13.3046,4.60126,2470.73,2023-11-22T02:54:24Z
2023-11-22T00:54:59Z,42.805,6.029,13.3046,4.60122,2470.73,2023-11-22T02:57:27Z
2023-11-22T00:58:02Z,42.805,6.029,13.3050,4.60123,2470.707,2023-11-22T03:00:30Z
2023-11-22T01:01:05Z,42.805,6.029,13.3044,4.60123,2470.707,2023-11-22T03:03:33Z
2023-11-22T01:04:08Z,42.805,6.029,13.3043,4.60121,2470.717,2023-11-22T03:06:36Z
2023-11-22T01:07:11Z,42.805,6.029,13.3048,4.60123,2470.67,2023-11-22T03:09:39Z
2023-11-22T01:10:14Z,42.805,6.029,13.3046,4.60122,2470.73,2023-11-22T03:12:42Z
2023-11-22T01:13:17Z,42.805,6.029,13.3042,4.60119,2470.74,2023-11-22T03:15:45Z
2023-11-22T01:16:20Z,42.805,6.029,13.3042,4.60129,2470.717,2023-11-22T03:18:48Z
2023-11-22T01:19:24Z,42.805,6.029,13.3045,4.60121,2470.717,2023-11-22T03:21:51Z
2023-11-22T01:22:27Z,42.805,6.029,13.3048,4.60125,2470.693,2023-11-22T03:24:54Z
2023-11-22T01:25:30Z,42.805,6.029,13.3046,4.60127,2470.73,2023-11-22T03:27:57Z
2023-11-22T01:28:33Z,42.805,6.029,13.3048,4.60132,2470.73,2023-11-22T03:31:01Z
2023-11-22T01:31:36Z,42.805,6.029,13.3047,4.60129,2470.717,2023-11-22T03:34:04Z
2023-11-22T01:34:39Z,42.805,6.029,13.3050,4.60122,2470.754,2023-11-22T03:37:07Z
2023-11-22T01:37:42Z,42.805,6.029,13.3040,4.60118,2470.777,2023-11-22T03:40:10Z
2023-11-22T01:40:45Z,42.805,6.029,13.3044,4.60125,2470.707,2023-11-22T03:43:13Z
2023-11-22T01:43:48Z,42.805,6.029,13.3045,4.60125,2470.74,2023-11-22T03:46:16Z
2023-11-22T01:46:51Z,42.805,6.029,13.3041,4.60122,2470.74,2023-11-22T03:49:19Z
2023-11-22T01:49:54Z,42.805,6.029,13.3044,4.60122,2470.73,2023-11-22T03:52:22Z
2023-11-22T01:52:57Z,42.805,6.029,13.3046,4.60129,2470.74,2023-11-22T03:55:25Z
2023-11-22T01:56:01Z,42.805,6.029,13.3046,4.60129,2470.763,2023-11-22T03:58:28Z
2023-11-22T01:59:04Z,42.805,6.029,13.3047,4.60120,2470.717,2023-11-22T04:01:31Z
2023-11-22T02:02:07Z,42.805,6.029,13.3043,4.60121,2470.74,2023-11-22T04:04:34Z
2023-11-22T02:05:10Z,42.805,6.029,13.3041,4.60123,2470.717,2023-11-22T04:07:37Z
2023-11-22T02:08:13Z,42.805,6.029,13.3039,4.60119,2470.693,2023-11-22T04:10:41Z
2023-11-22T02:11:16Z,42.805,6.029,13.3043,4.60117,2470.693,2023-11-22T04:13:44Z
2023-11-22T02:14:19Z,42.805,6.029,13.3046,4.60119,2470.707,2023-11-22T04:16:47Z
2023-11-22T02:17:22Z,42.805,6.029,13.3044,4.60117,2470.74,2023-11-22T04:19:50Z
2023-11-22T02:20:25Z,42.805,6.029,13.3043,4.60119,2470.754,2023-11-22T04:22:53Z
2023-11-22T02:23:28Z,42.805,6.029,13.3048,4.60126,2470.717,2023-11-22T04:25:56Z
2023-11-22T02:26:31Z,42.805,6.029,13.3043,4.60125,2470.754,2023-11-22T04:28:59Z
2023-11-22T02:29:34Z,42.805,6.029,13.3044,4.60119,2470.707,2023-11-22T04:32:02Z
2023-11-22T02:32:37Z,42.805,6.029,13.3043,4.60118,2470.73,2023-11-22T04:35:05Z
2023-11-22T02:35:41Z,42.805,6.029,13.3044,4.60125,2470.754,2023-11-22T04:38:08Z
2023-11-22T02:38:44Z,42.805,6.029,13.3041,4.60124,2470.717,2023-11-22T04:41:11Z
2023-11-22T02:41:47Z,42.805,6.029,13.3046,4.60121,2470.763,2023-11-22T04:44:15Z
2023-11-22T02:44:50Z,42.805,6.029,13.3046,4.60125,2470.73,2023-11-22T04:47:18Z
2023-11-22T02:47:53Z,42.805,6.029,13.3039,4.60125,2470.754,2023-11-22T04:50:21Z
2023-11-22T02:50:56Z,42.805,6.029,13.3043,4.60127,2470.717,2023-11-22T04:53:24Z
2023-11-22T02:53:59Z,42.805,6.029,13.3047,4.60122,2470.707,2023-11-22T04:56:27Z
2023-11-22T02:57:02Z,42.805,6.029,13.3041,4.60117,2470.74,2023-11-22T04:59:30Z
2023-11-22T03:00:05Z,42.805,6.029,13.3044,4.60120,2470.717,2023-11-22T05:02:33Z
2023-11-22T03:03:08Z,42.805,6.029,13.3042,4.60119,2470.73,2023-11-22T05:05:36Z
2023-11-22T03:06:11Z,42.805,6.029,13.3048,4.60125,2470.74,2023-11-22T05:08:39Z
2023-11-22T03:09:14Z,42.805,6.029,13.3043,4.60119,2470.73,2023-11-22T05:11:42Z
2023-11-22T03:12:18Z,42.805,6.029,13.3041,4.60119,2470.717,2023-11-22T05:14:45Z
2023-11-22T03:15:21Z,42.805,6.029,13.3046,4.60117,2470.74,2023-11-22T05:17:48Z
2023-11-22T03:18:24Z,42.805,6.029,13.3037,4.60120,2470.754,2023-11-22T05:20:51Z
2023-11-22T03:21:27Z,42.805,6.029,13.3043,4.60123,2470.73,2023-11-22T05:23:55Z
2023-11-22T03:24:30Z,42.805,6.029,13.3043,4.60119,2470.73,2023-11-22T05:26:58Z
2023-11-22T03:27:33Z,42.805,6.029,13.3041,4.60121,2470.74,2023-11-22T05:30:01Z
2023-11-22T03:30:36Z,42.805,6.029,13.3045,4.60119,2470.754,2023-11-22T05:33:04Z
2023-11-22T03:33:39Z,42.805,6.029,13.3042,4.60117,2470.73,2023-11-22T05:36:07Z
2023-11-22T03:36:42Z,42.805,6.029,13.3045,4.60124,2470.74,2023-11-22T05:39:10Z
2023-11-22T03:39:45Z,42.805,6.029,13.3043,4.60120,2470.754,2023-11-22T05:42:13Z
2023-11-22T03:42:48Z,42.805,6.029,13.3047,4.60136,2470.74,2023-11-22T05:45:16Z
2023-11-22T03:45:51Z,42.805,6.029,13.3044,4.60117,2470.693,2023-11-22T05:48:19Z
2023-11-22T03:48:55Z,42.805,6.029,13.3047,4.60119,2470.717,2023-11-22T05:51:22Z
2023-11-22T03:51:58Z,42.805,6.029,13.3040,4.60119,2470.717,2023-11-22T05:54:25Z
2023-11-22T03:55:01Z,42.805,6.029,13.3043,4.60125,2470.74,2023-11-22T05:57:28Z
2023-11-22T03:58:04Z,42.805,6.029,13.3040,4.60117,2470.717,2023-11-22T06:00:32Z
2023-11-22T04:01:07Z,42.805,6.029,13.3042,4.60119,2470.74,2023-11-22T06:03:35Z
2023-11-22T04:04:10Z,42.805,6.029,13.3040,4.60117,2470.707,2023-11-22T06:06:38Z
2023-11-22T04:07:13Z,42.805,6.029,13.3045,4.60117,2470.67,2023-11-22T06:09:41Z
2023-11-22T04:10:16Z,42.805,6.029,13.3040,4.60119,2470.73,2023-11-22T06:12:44Z
2023-11-22T04:13:19Z,42.805,6.029,13.3039,4.60119,2470.754,2023-11-22T06:15:47Z
2023-11-22T04:16:22Z,42.805,6.029,13.3043,4.60122,2470.717,2023-11-22T06:18:50Z
2023-11-22T04:19:25Z,42.805,6.029,13.3041,4.60117,2470.74,2023-11-22T06:21:53Z
2023-11-22T04:22:28Z,42.805,6.029,13.3042,4.60122,2470.74,2023-11-22T06:24:56Z
2023-11-22T04:25:32Z,42.805,6.029,13.3043,4.60123,2470.74,2023-11-22T06:27:59Z
2023-11-22T04:28:35Z,42.805,6.029,13.3048,4.60121,2470.717,2023-11-22T06:31:02Z
2023-11-22T04:31:38Z,42.805,6.029,13.3041,4.60121,2470.717,2023-11-22T06:34:05Z
2023-11-22T04:34:41Z,42.805,6.029,13.3044,4.60121,2470.717,2023-11-22T06:37:09Z
2023-11-22T04:37:44Z,42.805,6.029,13.3048,4.60119,2470.754,2023-11-22T06:40:12Z
2023-11-22T04:40:47Z,42.805,6.029,13.3044,4.60121,2470.693,2023-11-22T06:43:15Z
2023-11-22T04:43:50Z,42.805,6.029,13.3044,4.60119,2470.74,2023-11-22T06:46:18Z
2023-11-22T04:46:53Z,42.805,6.029,13.3036,4.60121,2470.703,2023-11-22T06:49:21Z
2023-11-22T04:49:56Z,42.805,6.029,13.3043,4.60117,2470.763,2023-11-22T06:52:24Z
2023-11-22T04:52:59Z,42.805,6.029,13.3041,4.60117,2470.74,2023-11-22T06:55:27Z
2023-11-22T04:56:02Z,42.805,6.029,13.3041,4.60119,2470.717,2023-11-22T06:58:30Z
2023-11-22T04:59:05Z,42.805,6.029,13.3040,4.60117,2470.74,2023-11-22T07:01:33Z
2023-11-22T05:02:08Z,42.805,6.029,13.3043,4.60120,2470.693,2023-11-22T07:04:36Z
2023-11-22T05:05:12Z,42.805,6.029,13.3043,4.60120,2470.717,2023-11-22T07:07:39Z
2023-11-22T05:08:15Z,42.805,6.029,13.3048,4.60124,2470.693,2023-11-22T07:10:42Z
2023-11-22T05:11:18Z,42.805,6.029,13.3041,4.60119,2470.717,2023-11-22T07:13:46Z
2023-11-22T05:14:21Z,42.805,6.029,13.3043,4.60129,2470.73,2023-11-22T07:16:49Z
2023-11-22T05:17:24Z,42.805,6.029,13.3041,4.60122,2470.73,2023-11-22T07:19:52Z
2023-11-22T05:20:27Z,42.805,6.029,13.3042,4.60122,2470.693,2023-11-22T07:22:55Z
2023-11-22T05:23:30Z,42.805,6.029,13.3048,4.60128,2470.717,2023-11-22T07:25:58Z
2023-11-22T05:26:33Z,42.805,6.029,13.3039,4.60117,2470.693,2023-11-22T07:29:01Z
2023-11-22T05:29:36Z,42.805,6.029,13.3043,4.60121,2470.74,2023-11-22T07:32:04Z
2023-11-22T05:32:40Z,42.805,6.029,13.3043,4.60127,2470.717,2023-11-22T07:35:08Z
2023-11-22T05:35:43Z,42.805,6.029,13.3039,4.60116,2470.754,2023-11-22T07:38:11Z
2023-11-22T05:38:46Z,42.805,6.029,13.3039,4.60114,2470.703,2023-11-22T07:41:14Z
2023-11-22T05:41:49Z,42.805,6.029,13.3039,4.60116,2470.717,2023-11-22T07:44:17Z
2023-11-22T05:44:52Z,42.805,6.029,13.3043,4.60116,2470.717,2023-11-22T07:47:20Z
2023-11-22T05:47:55Z,42.805,6.029,13.3036,4.60117,2470.707,2023-11-22T07:50:23Z
2023-11-22T05:50:58Z,42.805,6.029,13.3041,4.60118,2470.693,2023-11-22T07:53:26Z
2023-11-22T05:54:01Z,42.805,6.029,13.3041,4.60117,2470.717,2023-11-22T07:56:29Z
2023-11-22T05:57:04Z,42.805,6.029,13.3045,4.60119,2470.693,2023-11-22T07:59:32Z
2023-11-22T06:00:07Z,42.805,6.029,13.3036,4.60118,2470.693,2023-11-22T08:02:35Z
2023-11-22T06:03:11Z,42.805,6.029,13.3041,4.60117,2470.656,2023-11-22T08:05:38Z
2023-11-22T06:06:14Z,42.805,6.029,13.3046,4.60122,2470.684,2023-11-22T08:08:41Z
2023-11-22T06:09:17Z,42.805,6.029,13.3041,4.60121,2470.707,2023-11-22T08:11:44Z
2023-11-22T06:12:20Z,42.805,6.029,13.3047,4.60120,2470.679,2023-11-22T08:14:48Z
2023-11-22T06:15:23Z,42.805,6.029,13.3042,4.60120,2470.693,2023-11-22T08:17:51Z
2023-11-22T06:18:26Z,42.805,6.029,13.3042,4.60122,2470.73,2023-11-22T08:20:54Z
2023-11-22T06:21:29Z,42.805,6.029,13.3039,4.60121,2470.67,2023-11-22T08:23:57Z
2023-11-22T06:24:32Z,42.805,6.029,13.3043,4.60123,2470.693,2023-11-22T08:27:00Z
2023-11-22T06:27:35Z,42.805,6.029,13.3045,4.60120,2470.707,2023-11-22T08:30:03Z
2023-11-22T06:30:38Z,42.805,6.029,13.3041,4.60121,2470.717,2023-11-22T08:33:06Z
2023-11-22T06:33:41Z,42.805,6.029,13.3042,4.60119,2470.717,2023-11-22T08:36:09Z
2023-11-22T06:36:44Z,42.805,6.029,13.3046,4.60119,2470.693,2023-11-22T08:39:12Z
2023-11-22T06:39:47Z,42.805,6.029,13.3046,4.60120,2470.684,2023-11-22T08:42:15Z
2023-11-22T06:42:51Z,42.805,6.029,13.3043,4.60120,2470.73,2023-11-22T08:45:18Z
2023-11-22T06:45:54Z,42.805,6.029,13.3045,4.60117,2470.67,2023-11-22T08:48:21Z
2023-11-22T06:48:57Z,42.805,6.029,13.3041,4.60116,2470.693,2023-11-22T08:51:25Z
2023-11-22T06:52:00Z,42.805,6.029,13.3043,4.60119,2470.693,2023-11-22T08:54:28Z
2023-11-22T06:55:03Z,42.805,6.029,13.3046,4.60122,2470.67,2023-11-22T08:57:31Z
2023-11-22T06:58:06Z,42.805,6.029,13.3043,4.60120,2470.679,2023-11-22T09:00:34Z
2023-11-22T07:01:09Z,42.805,6.029,13.3042,4.60119,2470.707,2023-11-22T09:03:37Z
2023-11-22T07:04:12Z,42.805,6.029,13.3044,4.60122,2470.67,2023-11-22T09:06:40Z
2023-11-22T07:07:15Z,42.805,6.029,13.3042,4.60119,2470.707,2023-11-22T09:09:43Z
2023-11-22T07:10:18Z,42.805,6.029,13.3046,4.60120,2470.67,2023-11-22T09:12:46Z
2023-11-22T07:13:21Z,42.805,6.029,13.3046,4.60135,2470.693,2023-11-22T09:15:49Z
2023-11-22T07:16:24Z,42.805,6.029,13.3039,4.60116,2470.661,2023-11-22T09:18:52Z
2023-11-22T07:19:27Z,42.805,6.029,13.3041,4.60120,2470.707,2023-11-22T09:21:55Z
2023-11-22T07:22:31Z,42.805,6.029,13.3039,4.60126,2470.646,2023-11-22T09:24:58Z
2023-11-22T07:25:34Z,42.805,6.029,13.3037,4.60116,2470.707,2023-11-22T09:28:01Z
2023-11-22T07:28:37Z,42.805,6.029,13.3043,4.60118,2470.646,2023-11-22T09:31:05Z
2023-11-22T07:31:40Z,42.805,6.029,13.3041,4.60119,2470.693,2023-11-22T09:34:08Z
2023-11-22T07:34:43Z,42.805,6.029,13.3041,4.60116,2470.646,2023-11-22T09:37:11Z
2023-11-22T07:37:46Z,42.805,6.029,13.3039,4.60121,2470.67,2023-11-22T09:40:14Z
2023-11-22T07:40:49Z,42.805,6.029,13.3046,4.60116,2470.684,2023-11-22T09:43:17Z
2023-11-22T07:43:52Z,42.805,6.029,13.3043,4.60120,2470.67,2023-11-22T09:46:20Z
2023-11-22T07:46:55Z,42.805,6.029,13.3040,4.60120,2470.693,2023-11-22T09:49:23Z
2023-11-22T07:49:58Z,42.805,6.029,13.3040,4.60122,2470.67,2023-11-22T09:52:26Z
2023-11-22T07:53:01Z,42.805,6.029,13.3041,4.60122,2470.707,2023-11-22T09:55:29Z
2023-11-22T07:56:04Z,42.805,6.029,13.3041,4.60122,2470.67,2023-11-22T09:58:32Z
2023-11-22T07:59:08Z,42.805,6.029,13.3047,4.60127,2470.693,2023-11-22T10:01:35Z
2023-11-22T08:02:11Z,42.805,6.029,13.3042,4.60117,2470.717,2023-11-22T10:04:38Z
2023-11-22T08:05:14Z,42.805,6.029,13.3036,4.60114,2470.646,2023-11-22T10:07:42Z
2023-11-22T08:08:17Z,42.805,6.029,13.3041,4.60119,2470.67,2023-11-22T10:10:45Z
2023-11-22T08:11:20Z,42.805,6.029,13.3043,4.60122,2470.684,2023-11-22T10:13:48Z
2023-11-22T08:14:23Z,42.805,6.029,13.3042,4.60128,2470.693,2023-11-22T10:16:51Z
2023-11-22T08:17:26Z,42.805,6.029,13.3041,4.60120,2470.646,2023-11-22T10:19:54Z
2023-11-22T08:20:29Z,42.805,6.029,13.3043,4.60127,2470.684,2023-11-22T10:22:57Z
2023-11-22T08:23:32Z,42.805,6.029,13.3043,4.60115,2470.684,2023-11-22T10:26:00Z
2023-11-22T08:26:35Z,42.805,6.029,13.3043,4.60122,2470.67,2023-11-22T10:29:03Z
2023-11-22T08:29:38Z,42.805,6.029,13.3042,4.60116,2470.646,2023-11-22T10:32:06Z
2023-11-22T08:32:41Z,42.805,6.029,13.3044,4.60117,2470.646,2023-11-22T10:35:09Z
2023-11-22T08:35:45Z,42.805,6.029,13.3041,4.60117,2470.67,2023-11-22T10:38:12Z
2023-11-22T08:38:48Z,42.805,6.029,13.3041,4.60114,2470.67,2023-11-22T10:41:15Z
2023-11-22T08:41:51Z,42.805,6.029,13.3039,4.60115,2470.661,2023-11-22T10:44:19Z
2023-11-22T08:44:54Z,42.805,6.029,13.3042,4.60117,2470.684,2023-11-22T10:47:22Z
2023-11-22T08:47:57Z,42.805,6.029,13.3039,4.60111,2470.656,2023-11-22T10:50:25Z
2023-11-22T08:51:00Z,42.805,6.029,13.3042,4.60117,2470.693,2023-11-22T10:53:28Z
2023-11-22T08:54:03Z,42.805,6.029,13.3041,4.60117,2470.661,2023-11-22T10:56:31Z
2023-11-22T08:57:06Z,42.805,6.029,13.3042,4.60119,2470.693,2023-11-22T10:59:34Z
2023-11-22T09:00:09Z,42.805,6.029,13.3039,4.60119,2470.67,2023-11-22T11:02:37Z
2023-11-22T09:03:12Z,42.805,6.029,13.3040,4.60117,2470.656,2023-11-22T11:05:40Z
2023-11-22T09:06:15Z,42.805,6.029,13.3040,4.60119,2470.67,2023-11-22T11:08:43Z
2023-11-22T09:09:19Z,42.805,6.029,13.3046,4.60123,2470.624,2023-11-22T11:11:46Z
2023-11-22T09:12:22Z,42.805,6.029,13.3040,4.60115,2470.693,2023-11-22T11:14:49Z
2023-11-22T09:15:25Z,42.805,6.029,13.3039,4.60116,2470.646,2023-11-22T11:17:52Z
2023-11-22T09:18:28Z,42.805,6.029,13.3040,4.60117,2470.646,2023-11-22T11:20:56Z
2023-11-22T09:21:31Z,42.805,6.029,13.3041,4.60116,2470.67,2023-11-22T11:23:59Z
2023-11-22T09:24:34Z,42.805,6.029,13.3034,4.60125,2470.693,2023-11-22T11:27:02Z
2023-11-22T09:27:37Z,42.805,6.029,13.3036,4.60122,2470.707,2023-11-22T11:30:05Z
2023-11-22T09:30:39Z,42.805,6.029,13.3041,4.60117,2470.707,2023-11-22T11:33:07Z
2023-11-22T09:33:42Z,42.805,6.029,13.3040,4.60117,2470.646,2023-11-22T11:36:10Z
2023-11-22T09:36:45Z,42.805,6.029,13.3037,4.60115,2470.67,2023-11-22T11:39:13Z
2023-11-22T09:39:48Z,42.805,6.029,13.3039,4.60116,2470.67,2023-11-22T11:42:16Z
2023-11-22T09:42:51Z,42.805,6.029,13.3042,4.60123,2470.646,2023-11-22T11:45:19Z
2023-11-22T09:45:55Z,42.805,6.029,13.3040,4.60117,2470.67,2023-11-22T11:48:22Z
2023-11-22T09:48:58Z,42.805,6.029,13.3041,4.60114,2470.679,2023-11-22T11:51:25Z
2023-11-22T09:52:01Z,42.805,6.029,13.3041,4.60115,2470.707,2023-11-22T11:54:29Z
2023-11-22T09:55:04Z,42.805,6.029,13.3046,4.60119,2470.661,2023-11-22T11:57:32Z
2023-11-22T09:58:07Z,42.805,6.029,13.3045,4.60127,2470.67,2023-11-22T12:00:35Z
2023-11-22T10:01:10Z,42.805,6.029,13.3039,4.60116,2470.67,2023-11-22T12:03:38Z
2023-11-22T10:04:13Z,42.805,6.029,13.3046,4.60122,2470.684,2023-11-22T12:06:41Z
2023-11-22T10:07:16Z,42.805,6.029,13.3040,4.60117,2470.684,2023-11-22T12:09:44Z
2023-11-22T10:10:19Z,42.805,6.029,13.3039,4.60114,2470.693,2023-11-22T12:12:47Z
2023-11-22T10:13:22Z,42.805,6.029,13.3040,4.60115,2470.661,2023-11-22T12:15:50Z
2023-11-22T10:16:25Z,42.805,6.029,13.3046,4.60127,2470.67,2023-11-22T12:18:53Z
2023-11-22T10:19:29Z,42.805,6.029,13.3038,4.60115,2470.67,2023-11-22T12:21:56Z
2023-11-22T10:22:32Z,42.805,6.029,13.3042,4.60119,2470.707,2023-11-22T12:24:59Z
2023-11-22T10:25:35Z,42.805,6.029,13.3038,4.60118,2470.693,2023-11-22T12:28:03Z
2023-11-22T10:28:38Z,42.805,6.029,13.3041,4.60120,2470.67,2023-11-22T12:31:06Z
2023-11-22T10:31:41Z,42.805,6.029,13.3039,4.60121,2470.693,2023-11-22T12:34:09Z
2023-11-22T10:34:44Z,42.805,6.029,13.3044,4.60135,2470.67,2023-11-22T12:37:12Z
2023-11-22T10:37:47Z,42.805,6.029,13.3043,4.60119,2470.693,2023-11-22T12:40:15Z
2023-11-22T10:40:50Z,42.805,6.029,13.3041,4.60120,2470.67,2023-11-22T12:43:18Z
2023-11-22T10:43:53Z,42.805,6.029,13.3041,4.60117,2470.707,2023-11-22T12:46:21Z
2023-11-22T10:46:56Z,42.805,6.029,13.3041,4.60117,2470.67,2023-11-22T12:49:24Z
2023-11-22T10:49:59Z,42.805,6.029,13.3039,4.60120,2470.693,2023-11-22T12:52:27Z
2023-11-22T10:53:03Z,42.805,6.029,13.3046,4.60127,2470.67,2023-11-22T12:55:30Z
2023-11-22T10:56:06Z,42.805,6.029,13.3040,4.60119,2470.73,2023-11-22T12:58:33Z
2023-11-22T10:59:09Z,42.805,6.029,13.3039,4.60117,2470.717,2023-11-22T13:01:37Z
2023-11-22T11:02:12Z,42.805,6.029,13.3038,4.60112,2470.707,2023-11-22T13:04:40Z
2023-11-22T11:05:15Z,42.805,6.029,13.3034,4.60114,2470.693,2023-11-22T13:07:43Z
2023-11-22T11:08:18Z,42.805,6.029,13.3043,4.60117,2470.73,2023-11-22T13:10:46Z
2023-11-22T11:11:21Z,42.805,6.029,13.3041,4.60121,2470.717,2023-11-22T13:13:49Z
2023-11-22T11:14:24Z,42.805,6.029,13.3042,4.60118,2470.73,2023-11-22T13:16:52Z
2023-11-22T11:17:27Z,42.805,6.029,13.3040,4.60117,2470.717,2023-11-22T13:19:55Z
2023-11-22T11:20:30Z,42.805,6.029,13.3043,4.60122,2470.717,2023-11-22T13:22:58Z
2023-11-22T11:23:33Z,42.805,6.029,13.3039,4.60119,2470.693,2023-11-22T13:26:01Z
2023-11-22T11:26:37Z,42.805,6.029,13.3039,4.60119,2470.707,2023-11-22T13:29:04Z
2023-11-22T11:29:40Z,42.805,6.029,13.3039,4.60116,2470.763,2023-11-22T13:32:07Z
2023-11-22T11:32:43Z,42.805,6.029,13.3040,4.60114,2470.707,2023-11-22T13:35:10Z
2023-11-22T11:35:46Z,42.805,6.029,13.3042,4.60123,2470.754,2023-11-22T13:38:14Z
2023-11-22T11:38:49Z,42.805,6.029,13.3038,4.60128,2470.763,2023-11-22T13:41:17Z
2023-11-22T11:41:52Z,42.805,6.029,13.3041,4.60123,2470.717,2023-11-22T13:44:20Z
2023-11-22T11:44:55Z,42.805,6.029,13.3046,4.60127,2470.73,2023-11-22T13:47:23Z
2023-11-22T11:47:58Z,42.805,6.029,13.3040,4.60125,2470.717,2023-11-22T13:50:26Z
2023-11-22T11:51:01Z,42.805,6.029,13.3038,4.60121,2470.754,2023-11-22T13:53:29Z
2023-11-22T11:54:04Z,42.805,6.029,13.3041,4.60116,2470.73,2023-11-22T13:56:32Z
2023-11-22T11:57:07Z,42.805,6.029,13.3038,4.60117,2470.763,2023-11-22T13:59:35Z
2023-11-22T12:00:10Z,42.805,6.029,13.3043,4.60120,2470.74,2023-11-22T14:02:38Z
2023-11-22T12:03:14Z,42.805,6.029,13.3045,4.60118,2470.763,2023-11-22T14:05:41Z
2023-11-22T12:06:17Z,42.805,6.029,13.3044,4.60121,2470.754,2023-11-22T14:08:44Z
2023-11-22T12:09:20Z,42.805,6.029,13.3041,4.60119,2470.763,2023-11-22T14:11:48Z
2023-11-22T12:12:23Z,42.805,6.029,13.3039,4.60120,2470.763,2023-11-22T14:14:51Z
2023-11-22T12:15:26Z,42.805,6.029,13.3041,4.60117,2470.787,2023-11-22T14:17:54Z
2023-11-22T12:18:29Z,42.805,6.029,13.3044,4.60117,2470.74,2023-11-22T14:20:57Z
2023-11-22T12:21:32Z,42.805,6.029,13.3044,4.60120,2470.777,2023-11-22T14:24:00Z
2023-11-22T12:24:35Z,42.805,6.029,13.3041,4.60112,2470.791,2023-11-22T14:27:03Z
2023-11-22T12:27:38Z,42.805,6.029,13.3039,4.60119,2470.763,2023-11-22T14:30:06Z
2023-11-22T12:30:41Z,42.805,6.029,13.3042,4.60121,2470.787,2023-11-22T14:33:09Z
2023-11-22T12:33:44Z,42.805,6.029,13.3043,4.60117,2470.787,2023-11-22T14:36:12Z
2023-11-22T12:36:48Z,42.805,6.029,13.3039,4.60122,2470.787,2023-11-22T14:39:15Z
2023-11-22T12:39:51Z,42.805,6.029,13.3050,4.60122,2470.787,2023-11-22T14:42:18Z
2023-11-22T12:42:54Z,42.805,6.029,13.3043,4.60125,2470.74,2023-11-22T14:45:22Z
2023-11-22T12:45:57Z,42.805,6.029,13.3039,4.60119,2470.8,2023-11-22T14:48:25Z
2023-11-22T12:49:00Z,42.805,6.029,13.3041,4.60121,2470.787,2023-11-22T14:51:28Z
2023-11-22T12:52:03Z,42.805,6.029,13.3038,4.60119,2470.763,2023-11-22T14:54:31Z
2023-11-22T12:55:06Z,42.805,6.029,13.3037,4.60116,2470.8,2023-11-22T14:57:34Z
2023-11-22T12:58:09Z,42.805,6.029,13.3041,4.60117,2470.787,2023-11-22T15:00:37Z
2023-11-22T13:01:12Z,42.805,6.029,13.3036,4.60120,2470.81,2023-11-22T15:03:40Z
2023-11-22T13:04:15Z,42.805,6.029,13.3039,4.60114,2470.824,2023-11-22T15:06:43Z
2023-11-22T13:07:18Z,42.805,6.029,13.3040,4.60118,2470.81,2023-11-22T15:09:46Z
2023-11-22T13:10:22Z,42.805,6.029,13.3036,4.60118,2470.763,2023-11-22T15:12:49Z
2023-11-22T13:13:25Z,42.805,6.029,13.3042,4.60115,2470.8,2023-11-22T15:15:52Z
2023-11-22T13:16:28Z,42.805,6.029,13.3043,4.60120,2470.787,2023-11-22T15:18:56Z
2023-11-22T13:19:31Z,42.805,6.029,13.3036,4.60118,2470.81,2023-11-22T15:21:59Z
2023-11-22T13:22:34Z,42.805,6.029,13.3043,4.60122,2470.81,2023-11-22T15:25:02Z
2023-11-22T13:25:37Z,42.805,6.029,13.3045,4.60117,2470.81,2023-11-22T15:28:05Z
2023-11-22T13:28:40Z,42.805,6.029,13.3038,4.60125,2470.787,2023-11-22T15:31:08Z
2023-11-22T13:31:42Z,42.805,6.029,13.3041,4.60119,2470.81,2023-11-22T15:34:09Z
2023-11-22T13:34:45Z,42.805,6.029,13.3043,4.60117,2470.81,2023-11-22T15:37:13Z
2023-11-22T13:37:48Z,42.805,6.029,13.3036,4.60114,2470.833,2023-11-22T15:40:16Z
2023-11-22T13:40:51Z,42.805,6.029,13.3041,4.60114,2470.824,2023-11-22T15:43:19Z
2023-11-22T13:43:54Z,42.805,6.029,13.3041,4.60117,2470.81,2023-11-22T15:46:22Z
2023-11-22T13:46:57Z,42.805,6.029,13.3039,4.60122,2470.81,2023-11-22T15:49:25Z
2023-11-22T13:50:00Z,42.805,6.029,13.3040,4.60123,2470.833,2023-11-22T15:52:28Z
2023-11-22T13:53:03Z,42.805,6.029,13.3046,4.60122,2470.824,2023-11-22T15:55:31Z
2023-11-22T13:56:06Z,42.805,6.029,13.3039,4.60117,2470.833,2023-11-22T15:58:34Z
2023-11-22T13:59:09Z,42.805,6.029,13.3040,4.60114,2470.833,2023-11-22T16:01:37Z
2023-11-22T14:02:13Z,42.805,6.029,13.3042,4.60114,2470.787,2023-11-22T16:04:40Z
2023-11-22T14:05:16Z,42.805,6.029,13.3043,4.60121,2470.833,2023-11-22T16:07:43Z
2023-11-22T14:08:19Z,42.805,6.029,13.3046,4.60119,2470.833,2023-11-22T16:10:47Z
2023-11-22T14:11:22Z,42.805,6.029,13.3040,4.60114,2470.871,2023-11-22T16:13:50Z
2023-11-22T14:14:25Z,42.805,6.029,13.3039,4.60114,2470.81,2023-11-22T16:16:53Z
2023-11-22T14:17:28Z,42.805,6.029,13.3041,4.60114,2470.824,2023-11-22T16:19:56Z
2023-11-22T14:20:31Z,42.805,6.029,13.3041,4.60118,2470.857,2023-11-22T16:22:59Z
2023-11-22T14:23:34Z,42.805,6.029,13.3036,4.60122,2470.833,2023-11-22T16:26:02Z
2023-11-22T14:26:37Z,42.805,6.029,13.3037,4.60117,2470.833,2023-11-22T16:29:05Z
2023-11-22T14:29:40Z,42.805,6.029,13.3038,4.60130,2470.871,2023-11-22T16:32:08Z
2023-11-22T14:32:43Z,42.805,6.029,13.3046,4.60136,2470.833,2023-11-22T16:35:11Z
2023-11-22T14:35:46Z,42.805,6.029,13.3039,4.60113,2470.88,2023-11-22T16:38:14Z
2023-11-22T14:38:50Z,42.805,6.029,13.3041,4.60125,2470.847,2023-11-22T16:41:17Z
2023-11-22T14:41:53Z,42.805,6.029,13.3036,4.60117,2470.833,2023-11-22T16:44:20Z
2023-11-22T14:44:56Z,42.805,6.029,13.3047,4.60123,2470.857,2023-11-22T16:47:24Z
2023-11-22T14:47:59Z,42.805,6.029,13.3039,4.60120,2470.857,2023-11-22T16:50:27Z
2023-11-22T14:51:02Z,42.805,6.029,13.3041,4.60118,2470.847,2023-11-22T16:53:30Z
2023-11-22T14:54:05Z,42.805,6.029,13.3041,4.60122,2470.894,2023-11-22T16:56:33Z
2023-11-22T14:57:08Z,42.805,6.029,13.3039,4.60117,2470.81,2023-11-22T16:59:36Z
2023-11-22T15:00:11Z,42.805,6.029,13.3041,4.60121,2470.857,2023-11-22T17:02:39Z